Change the Weather History Date:

Sunday, September 16, 2012

  Actual Average Record
Temperature  
Mean Temperature 82 °F -  
Max Temperature 89 °F 70 °F 89 °F (2012)
Min Temperature 74 °F 58 °F 53 °F (1996)
Cooling Degree Days 16    
Growing Degree Days 32 (Base 50)    
Moisture  
Dew Point 57 °F    
Average Humidity 46    
Maximum Humidity 69    
Minimum Humidity 25    
Precipitation  
Precipitation 0.00 in - - ()
Sea Level Pressure  
Sea Level Pressure 29.82 in    
Wind  
Wind Speed 12 mph ()    
Max Wind Speed 25 mph    
Max Gust Speed 37 mph    
Visibility 6.2 miles    
Events Thunderstorm    
Averages and records for this station are not official NWS values.
T = Trace of Precipitation, MM = Missing Value Source: Averaged Metar Reports

Daily Weather History Graph

Daily Weather History Graph

Search for Another Location

Airport or City:

Trip Planner

Search our weather history database for the weather conditions in past years. The results will help you decide how hot, cold, wet, or windy it might be!

Date:

Astronomy

Sep. 16, 2012 Rise Set
Actual Time 6:46 AM EEST 7:11 PM EEST
Civil Twilight 6:18 AM EEST 7:39 PM EEST
Nautical Twilight 5:46 AM EEST 8:11 PM EEST
Astronomical Twilight 5:13 AM EEST 8:44 PM EEST
Moon 7:03 AM EEST (9/16) 7:04 PM EEST (9/16)
Length of Visible Light 13h 20m
Length of Day
12h 25m
New Moon, 0% of the Moon is Illuminated
Sep 16
New Moon
Sep 22
First Quarter
Sep 30
Full
Oct 8
Last Quarter
Oct 15
New

Hourly Weather History & Observations

Time (EEST) Temp. Heat Index Dew Point Humidity Pressure Visibility Wind Dir Wind Speed Gust Speed Precip Events Conditions
12:20 AM 80.6 °F - 51.8 °F 37% 29.83 in 6.2 mi NE 4.6 mph - N/A   Scattered Clouds
12:50 AM 78.8 °F - 53.6 °F 42% 29.80 in - NNE 5.8 mph - N/A   Clear
1:20 AM 80.6 °F - 50.0 °F 34% 29.80 in - ENE 6.9 mph - N/A   Clear
1:50 AM 78.8 °F - 51.8 °F 39% 29.80 in - North 5.8 mph - N/A   Clear
2:20 AM 75.2 °F - 50.0 °F 41% 29.80 in - NNW 6.9 mph - N/A   Clear
2:50 AM 77.0 °F - 51.8 °F 41% 29.83 in - West 6.9 mph - N/A   Clear
3:00 AM 76 °F - 51 °F 31% 29.83 in 6 mi West 6.9 mph - -   Partly Cloudy
3:20 AM 77.0 °F - 51.8 °F 41% 29.83 in - NNW 10.4 mph - N/A   Clear
3:50 AM 75.2 °F - 51.8 °F 44% 29.80 in - NNW 12.7 mph - N/A   Clear
4:20 AM 75.2 °F - 55.4 °F 50% 29.83 in - NNW 11.5 mph - N/A   Clear
4:50 AM 75.2 °F - 62.6 °F 65% 29.83 in - NNW 11.5 mph - N/A   Clear
5:20 AM 75.2 °F - 64.4 °F 69% 29.83 in - North 12.7 mph - N/A   Clear
5:50 AM 75.2 °F - 60.8 °F 61% 29.83 in - North 12.7 mph - N/A   Clear
6:20 AM 75.2 °F - 60.8 °F 61% 29.83 in - North 12.7 mph - N/A   Clear
6:50 AM 75.2 °F - 62.6 °F 65% 29.80 in - NNE 12.7 mph - N/A   Clear
7:50 AM 77.0 °F - 57.2 °F 50% 29.83 in - NE 8.1 mph - N/A   Clear
8:20 AM 80.6 °F 80.3 °F 53.6 °F 39% 29.83 in 6.2 mi NNE 11.5 mph - N/A   Partly Cloudy
8:50 AM 80.6 °F 80.3 °F 53.6 °F 39% 29.83 in 6.2 mi NNE 18.4 mph 33.4 mph N/A   Partly Cloudy
9:00 AM 81 °F - 51 °F 25% 29.83 in 6 mi NNE 18.4 mph - -   Scattered Clouds
9:20 AM 82.4 °F - 51.8 °F 35% 29.83 in 6.2 mi NE 18.4 mph - N/A   Scattered Clouds
9:50 AM 82.4 °F 81.4 °F 53.6 °F 37% 29.83 in 6.2 mi NE 17.3 mph - N/A   Scattered Clouds
10:20 AM 82.4 °F 81.4 °F 53.6 °F 37% 29.83 in 6.2 mi NE 19.6 mph - N/A   Scattered Clouds
10:50 AM 82.4 °F 81.7 °F 55.4 °F 39% 29.83 in 6.2 mi NE 19.6 mph - N/A   Partly Cloudy
11:20 AM 84.2 °F 83.0 °F 55.4 °F 37% 29.80 in 6.2 mi NE 18.4 mph - N/A   Partly Cloudy
11:50 AM 84.2 °F 82.8 °F 53.6 °F 35% 29.80 in 6.2 mi NE 17.3 mph - N/A   Partly Cloudy
12:20 PM 86.0 °F 84.2 °F 53.6 °F 33% 29.80 in 6.2 mi NE 18.4 mph - N/A   Partly Cloudy
12:50 PM 86.0 °F 84.9 °F 57.2 °F 37% 29.80 in 6.2 mi NNE 16.1 mph - N/A   Partly Cloudy
1:20 PM 86.0 °F 84.5 °F 55.4 °F 35% 29.80 in 6.2 mi NNE 20.7 mph - N/A   Partly Cloudy
1:50 PM 87.8 °F - 48.2 °F 25% 29.80 in 6.2 mi NNE 18.4 mph - N/A   Scattered Clouds
2:20 PM 86.0 °F - 51.8 °F 31% 29.80 in 6.2 mi NNE 21.9 mph - N/A   Scattered Clouds
2:50 PM 86.0 °F 84.5 °F 55.4 °F 35% 29.80 in 6.2 mi NNE 21.9 mph - N/A   Partly Cloudy
3:00 PM 85 °F - 54 °F 25% 29.79 in 6 mi NNE 21.9 mph - -   Scattered Clouds
3:20 PM 84.2 °F - 51.8 °F 33% 29.77 in 6.2 mi North 24.2 mph - N/A   Partly Cloudy
3:50 PM 84.2 °F - 51.8 °F 33% 29.77 in 6.2 mi North 25.3 mph - N/A   Partly Cloudy
4:20 PM 84.2 °F - 51.8 °F 33% 29.77 in 5.6 mi North 23.0 mph 35.7 mph N/A   Partly Cloudy
4:50 PM 82.4 °F 82.0 °F 57.2 °F 42% 29.77 in 6.2 mi North 25.3 mph - N/A   Partly Cloudy
5:20 PM 80.6 °F 81.1 °F 59.0 °F 48% 29.77 in 6.2 mi North 24.2 mph 36.8 mph N/A   Partly Cloudy
5:50 PM 78.8 °F - 59.0 °F 51% 29.80 in 6.2 mi NNE 21.9 mph - N/A   Partly Cloudy
6:20 PM 78.8 °F - 60.8 °F 54% 29.80 in 6.2 mi NNE 18.4 mph - N/A   Partly Cloudy
6:50 PM 77.0 °F - 60.8 °F 57% 29.80 in 6.2 mi NNE 18.4 mph - N/A   Scattered Clouds
7:20 PM 77.0 °F - 62.6 °F 61% 29.83 in 6.2 mi NNE 15.0 mph - N/A   Scattered Clouds
7:50 PM 77.0 °F - 62.6 °F 61% 29.83 in 6.2 mi NNE 17.3 mph - N/A   Scattered Clouds
8:20 PM 78.8 °F - 62.6 °F 57% 29.83 in 6.2 mi Variable 10.4 mph - N/A Thunderstorm Scattered Clouds
8:50 PM 78.8 °F - 64.4 °F 61% 29.86 in 6.2 mi NE 15.0 mph - N/A Thunderstorm Thunderstorm
9:00 PM 78 °F - 63 °F 50% 29.86 in 6 mi NE 15.0 mph - - Thunderstorm Thunderstorm
9:20 PM 75.2 °F - 64.4 °F 69% 29.86 in 6.2 mi NE 17.3 mph - N/A Thunderstorm Thunderstorm
9:50 PM 75.2 °F - 64.4 °F 69% 29.86 in 6.2 mi NE 16.1 mph - N/A   Mostly Cloudy
10:20 PM 75.2 °F - 64.4 °F 69% 29.83 in 6.2 mi NNE 13.8 mph - N/A   Mostly Cloudy
10:50 PM 75.2 °F - 64.4 °F 69% 29.83 in 6.2 mi NE 13.8 mph - N/A   Mostly Cloudy
11:20 PM 75.2 °F - 62.6 °F 65% 29.83 in 6.2 mi NE 11.5 mph - N/A   Mostly Cloudy
11:50 PM 75.2 °F - 62.6 °F 65% 29.83 in 6.2 mi NE 8.1 mph - N/A   Mostly Cloudy